[[{"header":{"parameterUnit":"m.s-1","parameterCategory":1,"la1":30.2991,"la2":30.254,"lo1":-89.0895,"lo2":-89.0444,"dy":0.0017,"dx":0.0017,"nx":28,"ny":28,"refTime":"2025-01-16T03:00:00:Z","depth":0,"parameterNumber":2,"parameterNumberName":"U-component_of_WINDS"},"data":[0,0,0,0,0,0,0,0,0,0,0,0,0,0,0,0,0,0,0,0,0,0,0,0,0,0,0,0,0,0,0,0,0,0,0,0,0,0,0,0,0,0,0,0,0,0,0,0,0,0,0,0,0,0,0,0,0,0,-0.5858,-0.5858,0,-0.5889,-0.5889,-0.589,-0.5867,-0.5866,-0.5865,-0.5865,-0.5898,-0.59,-0.5901,0,0,0,0,0,0,0,0,0,0,0,0,0,-0.578,-0.5781,-0.5858,-0.5858,-0.5859,-0.5889,-0.5889,-0.589,-0.5868,-0.5866,-0.5865,-0.5864,-0.5897,-0.5899,-0.5902,0,0,0,0,0,0,0,0,0,0,0,0,0,-0.5813,-0.5782,-0.5858,-0.5851,-0.5851,-0.5889,-0.5889,-0.589,-0.5868,-0.5866,-0.5865,-0.5864,-0.5896,-0.5899,-0.5902,-0.5948,0,0,-0.591,-0.5911,0,0,0,0,0,0,0,0,-0.5811,-0.5816,-0.5852,-0.5852,-0.5851,-0.5873,-0.5874,-0.591,-0.5868,-0.5862,-0.5865,-0.5863,-0.5891,-0.5894,-0.5903,-0.595,-0.5951,-0.591,-0.5912,-0.5913,-0.5914,0,0,0,0,0,0,0,-0.5809,-0.5814,-0.587,-0.5852,-0.5852,-0.5847,-0.585,-0.5881,-0.5884,-0.5862,-0.586,-0.5864,-0.589,-0.59,-0.5904,-0.5952,-0.591,-0.5913,-0.5914,-0.5915,-0.6038,-0.604,0,0,0,0,0,0,-0.5807,-0.5812,-0.5869,-0.5871,-0.5827,-0.5849,-0.5853,-0.5868,-0.5884,-0.5885,-0.5866,-0.5863,-0.5897,-0.5901,-0.5905,-0.596,-0.5913,-0.5916,-0.5917,-0.6037,-0.6039,-0.604,0,0,0,0,0,0,-0.5805,-0.5812,-0.5868,-0.5841,-0.5848,-0.5852,-0.5869,-0.5869,-0.5879,-0.5886,-0.5887,-0.5875,-0.5896,-0.5901,-0.5938,-0.5961,-0.5917,-0.5919,-0.6035,-0.6037,-0.6039,-0.6072,0,0,0,0,0,0,-0.5803,-0.5812,-0.5829,-0.5842,-0.585,-0.59,-0.587,-0.5871,-0.5884,-0.5881,-0.5896,-0.5897,-0.5895,-0.5934,-0.594,-0.5964,-0.5922,-0.6033,-0.6036,-0.6039,-0.6069,-0.6076,-0.6081,0,0,0,0,0,-0.58,-0.5838,-0.583,-0.5837,-0.5872,-0.5902,-0.5906,-0.5903,-0.5886,-0.5904,-0.5908,-0.5896,-0.5957,-0.5938,-0.5945,-0.597,-0.6031,-0.6035,-0.6038,-0.6067,-0.6074,-0.6081,0,0,0,0,0,0,-0.5829,-0.5839,-0.5831,-0.5874,-0.5887,-0.5898,-0.5921,-0.5911,-0.593,-0.5927,-0.5922,-0.5925,-0.5964,-0.597,-0.5948,-0.6016,-0.5991,-0.5997,-0.601,-0.6018,-0.6024,-0.6022,-0.5924,0,0,0,0,0,-0.584,-0.5863,-0.5871,-0.5908,-0.5915,-0.5916,-0.5929,-0.5925,-0.5939,-0.5945,-0.5952,-0.5966,-0.5988,-0.6003,-0.6024,-0.6069,-0.6072,-0.609,-0.6096,-0.6101,-0.6106,-0.613,-0.6138,-0.6052,-0.6052,-0.6052,0,0,-0.5863,-0.5872,-0.5887,-0.5914,-0.5923,-0.5948,-0.5921,-0.5948,-0.5966,-0.5949,-0.5984,-0.599,-0.6005,-0.6046,-0.6065,-0.6053,-0.613,-0.6106,-0.611,-0.6112,-0.6135,-0.6143,-0.615,-0.6055,-0.6054,-0.6054,0,0,-0.5919,-0.5927,-0.5959,-0.5969,-0.5984,-0.5984,-0.5992,-0.6004,-0.6007,-0.6042,-0.6029,-0.605,-0.6089,-0.61,-0.6111,-0.6169,-0.6159,-0.6176,-0.6208,-0.6231,-0.6238,-0.6244,-0.6265,-0.6273,-0.6181,-0.6181,-0.6181,0,-0.5946,-0.5982,-0.5977,-0.6004,-0.6016,-0.6001,-0.6033,-0.6043,-0.6064,-0.6073,-0.6059,-0.6106,-0.6115,-0.6159,-0.6173,-0.6182,-0.619,-0.6175,-0.6237,-0.6243,-0.6249,-0.6269,-0.6277,-0.6183,-0.6182,-0.6182,-0.6182,0,-0.6016,-0.6041,-0.6064,-0.6084,-0.6099,-0.6129,-0.6128,-0.6143,-0.6137,-0.614,-0.6175,-0.6185,-0.6208,-0.6217,-0.6212,-0.626,-0.6252,-0.6238,-0.6214,-0.6259,-0.6278,-0.6286,-0.6186,-0.6185,-0.6184,-0.6184,0,0,-0.6092,-0.6107,-0.6116,-0.6125,-0.6139,-0.6158,-0.6187,-0.6208,-0.6222,-0.6236,-0.6261,-0.6293,-0.6279,-0.6292,-0.6288,-0.6308,-0.6354,-0.6291,-0.6292,-0.6303,-0.6407,-0.6419,-0.6428,-0.6347,-0.6348,-0.6349,-0.6406,0,-0.6148,-0.6198,-0.6193,-0.6241,-0.6264,-0.6248,-0.6273,-0.6285,-0.6287,-0.6307,-0.631,-0.6333,-0.6313,-0.6321,-0.634,-0.6344,-0.6375,-0.634,-0.637,-0.6371,-0.6368,-0.6438,-0.645,-0.6504,-0.6414,-0.6415,-0.6416,0,-0.6222,-0.6238,-0.6288,-0.6298,-0.6308,-0.633,-0.6349,-0.6368,-0.6381,-0.6381,-0.6394,-0.6386,-0.6415,-0.6389,-0.6429,-0.6405,-0.6416,-0.642,-0.6422,-0.6426,-0.6397,-0.6444,-0.652,-0.6529,-0.6427,-0.6426,-0.6425,0,-0.6273,-0.6307,-0.6341,-0.6349,-0.6362,-0.6378,-0.6384,-0.6395,-0.6408,-0.6425,-0.6433,-0.6452,-0.6464,-0.6479,-0.6476,-0.6458,-0.6517,-0.6491,-0.6519,-0.6519,-0.6533,-0.6532,-0.6613,-0.6539,-0.6539,-0.6538,-0.6538,0,-0.6337,-0.6369,-0.6365,-0.6386,-0.642,-0.6414,-0.6448,-0.6452,-0.6462,-0.6484,-0.6471,-0.6492,-0.6487,-0.6507,-0.6505,-0.6538,-0.6543,-0.6545,-0.6544,-0.6546,-0.6546,-0.6555,-0.6552,-0.6541,-0.654,-0.654,-0.6539,0,-0.6401,-0.64,-0.6436,-0.6444,-0.6447,-0.6472,-0.648,-0.65,-0.65,-0.6528,-0.6534,-0.6535,-0.6559,-0.6557,-0.6584,-0.6582,-0.6624,-0.6618,-0.6619,-0.6619,-0.6647,-0.6644,-0.6737,-0.6749,-0.6666,-0.6666,-0.6667,0,-0.6443,-0.6467,-0.6477,-0.6491,-0.6498,-0.652,-0.6532,-0.6526,-0.654,-0.6556,-0.6574,-0.6596,-0.6613,-0.6651,-0.6655,-0.6675,-0.667,-0.6701,-0.6673,-0.6675,-0.6672,-0.6671,-0.6673,-0.6707,-0.6708,-0.6709,-0.6709,0,-0.6518,-0.6516,-0.6535,-0.6553,-0.6569,-0.6583,-0.6596,-0.6608,-0.6603,-0.6619,-0.6643,-0.6656,-0.6682,-0.6705,-0.6723,-0.673,-0.6719,-0.6718,-0.6725,-0.6729,-0.6729,-0.673,-0.6635,-0.6716,-0.6716,-0.6715,-0.6715,-0.6714,-0.6573,-0.6593,-0.6603,-0.6625,-0.6633,-0.6646,-0.6665,-0.6667,-0.6686,-0.6707,-0.6702,-0.6729,-0.674,-0.6764,-0.6772,-0.6792,-0.6781,-0.6792,-0.6795,-0.6798,-0.6802,-0.6725,-0.6796,-0.6795,-0.6795,-0.6795,-0.6795,0,-0.6647,-0.6653,-0.6673,-0.6691,-0.6707,-0.6695,-0.6708,-0.6723,-0.6746,-0.6757,-0.6774,-0.6801,-0.6822,-0.6826,-0.6846,-0.6862,-0.6858,-0.6868,-0.6867,-0.6869,-0.681,-0.6802,-0.6871,-0.6871,-0.6871,-0.6871,-0.6871,-0.6871,-0.6688,-0.6722,-0.6721,-0.6758,-0.6763,-0.6789,-0.6798,-0.6809,-0.6817,-0.6848,-0.6865,-0.6867,-0.6875,-0.6896,-0.6914,-0.6915,-0.6923,-0.6936,-0.6935,-0.688,-0.6873,-0.6866,-0.6858,-0.6937,-0.6937,-0.6991,-0.6992,-0.6992]},{"header":{"parameterUnit":"m.s-1","parameterCategory":1,"la1":30.2991,"la2":30.254,"lo1":-89.0895,"lo2":-89.0444,"dy":0.0017,"dx":0.0017,"nx":28,"ny":28,"refTime":"2025-01-16T03:00:00:Z","depth":0,"parameterNumber":3,"parameterNumberName":"V-component_of_WINDS"},"data":[0,0,0,0,0,0,0,0,0,0,0,0,0,0,0,0,0,0,0,0,0,0,0,0,0,0,0,0,0,0,0,0,0,0,0,0,0,0,0,0,0,0,0,0,0,0,0,0,0,0,0,0,0,0,0,0,0,0,-3.3518,-3.3519,0,-3.3604,-3.3605,-3.3606,-3.3587,-3.3585,-3.3584,-3.3582,-3.3666,-3.367,-3.3674,0,0,0,0,0,0,0,0,0,0,0,0,0,-3.3334,-3.3337,-3.3517,-3.3519,-3.352,-3.3604,-3.3605,-3.3606,-3.3587,-3.3585,-3.3583,-3.3581,-3.3665,-3.3669,-3.3674,0,0,0,0,0,0,0,0,0,0,0,0,0,-3.3416,-3.3338,-3.3517,-3.3521,-3.3522,-3.3603,-3.3605,-3.3606,-3.3588,-3.3585,-3.3583,-3.3581,-3.3664,-3.3669,-3.3674,-3.3757,0,0,-3.3692,-3.3694,0,0,0,0,0,0,0,0,-3.3411,-3.3423,-3.3519,-3.352,-3.3522,-3.3582,-3.3571,-3.3657,-3.3588,-3.3562,-3.3582,-3.3579,-3.364,-3.3647,-3.3669,-3.3761,-3.3765,-3.3692,-3.3695,-3.3698,-3.3699,0,0,0,0,0,0,0,-3.3406,-3.3419,-3.3551,-3.352,-3.3522,-3.3517,-3.3526,-3.3587,-3.3613,-3.3564,-3.3563,-3.3574,-3.364,-3.3663,-3.367,-3.3766,-3.3692,-3.3697,-3.37,-3.3702,-3.3932,-3.3934,0,0,0,0,0,0,-3.3399,-3.3414,-3.3549,-3.3554,-3.346,-3.3522,-3.3532,-3.3565,-3.3613,-3.3618,-3.3576,-3.3573,-3.3655,-3.3664,-3.3673,-3.3774,-3.3698,-3.3703,-3.3706,-3.3929,-3.3932,-3.3935,0,0,0,0,0,0,-3.3395,-3.3411,-3.3545,-3.3484,-3.3501,-3.3528,-3.3565,-3.3568,-3.3591,-3.3622,-3.3626,-3.3595,-3.3653,-3.3665,-3.3737,-3.3777,-3.3706,-3.3711,-3.3926,-3.393,-3.3934,-3.3977,0,0,0,0,0,0,-3.339,-3.341,-3.3442,-3.3485,-3.3504,-3.3609,-3.3568,-3.3572,-3.3601,-3.3598,-3.364,-3.3645,-3.3652,-3.3729,-3.3743,-3.3783,-3.3715,-3.3922,-3.3928,-3.3932,-3.3972,-3.3982,-3.399,0,0,0,0,0,-3.3383,-3.345,-3.3444,-3.346,-3.3545,-3.3611,-3.3622,-3.363,-3.3605,-3.3637,-3.3657,-3.3644,-3.377,-3.3736,-3.3752,-3.3795,-3.392,-3.3926,-3.3932,-3.3968,-3.398,-3.399,0,0,0,0,0,0,-3.3409,-3.3455,-3.3449,-3.3532,-3.3568,-3.3608,-3.3649,-3.3642,-3.3685,-3.368,-3.3687,-3.3697,-3.377,-3.3789,-3.3751,-3.3878,-3.3841,-3.3851,-3.3863,-3.3875,-3.3884,-3.3878,-3.372,0,0,0,0,0,-3.3425,-3.3476,-3.3512,-3.3581,-3.36,-3.3621,-3.365,-3.3654,-3.3691,-3.3706,-3.373,-3.3766,-3.3814,-3.3845,-3.3891,-3.3974,-3.3983,-3.4011,-3.402,-3.4028,-3.4036,-3.4083,-3.4096,-3.3955,-3.3955,-3.3955,0,0,-3.3457,-3.3488,-3.3519,-3.3587,-3.3616,-3.3668,-3.3634,-3.369,-3.3729,-3.3714,-3.3784,-3.3803,-3.3843,-3.3922,-3.3957,-3.394,-3.4077,-3.4036,-3.4041,-3.4046,-3.4091,-3.4104,-3.4116,-3.3959,-3.3959,-3.3958,0,0,-3.3542,-3.3571,-3.3632,-3.3662,-3.3706,-3.372,-3.3735,-3.3776,-3.3789,-3.386,-3.3851,-3.3895,-3.3977,-3.4007,-3.4033,-3.4131,-3.412,-3.4145,-3.4193,-3.4239,-3.425,-3.426,-3.4296,-3.4309,-3.4153,-3.4153,-3.4153,0,-3.3576,-3.3655,-3.3664,-3.3722,-3.3752,-3.3743,-3.3805,-3.3833,-3.3889,-3.391,-3.3889,-3.3994,-3.402,-3.4105,-3.413,-3.415,-3.4167,-3.4141,-3.4248,-3.4258,-3.4267,-3.4302,-3.4315,-3.4156,-3.4156,-3.4155,-3.4155,0,-3.3695,-3.375,-3.3794,-3.3851,-3.3886,-3.3945,-3.3963,-3.3997,-3.3998,-3.4014,-3.4086,-3.4117,-3.417,-3.419,-3.419,-3.4277,-3.4265,-3.4246,-3.421,-3.4283,-3.4316,-3.4329,-3.416,-3.4159,-3.4158,-3.4157,0,0,-3.3798,-3.3861,-3.3877,-3.3903,-3.3952,-3.3994,-3.4053,-3.4107,-3.4136,-3.4175,-3.4225,-3.4295,-3.4279,-3.4309,-3.4312,-3.4352,-3.4429,-3.4328,-3.433,-3.4347,-3.4527,-3.4542,-3.4557,-3.4422,-3.4425,-3.4427,-3.4524,0,-3.3889,-3.3995,-3.4006,-3.41,-3.4151,-3.4144,-3.4195,-3.4231,-3.4247,-3.4292,-3.431,-3.436,-3.4335,-3.4352,-3.4391,-3.4411,-3.4465,-3.4404,-3.4469,-3.4471,-3.446,-3.4573,-3.4589,-3.4679,-3.4537,-3.4539,-3.454,0,-3.4009,-3.4054,-3.4154,-3.4198,-3.422,-3.4266,-3.4316,-3.436,-3.4399,-3.4408,-3.4442,-3.4441,-3.4501,-3.4462,-3.4545,-3.4503,-3.453,-3.4544,-3.4548,-3.4555,-3.4511,-3.4584,-3.4708,-3.4722,-3.456,-3.4559,-3.4557,0,-3.4076,-3.4161,-3.4233,-3.4256,-3.4307,-3.4341,-3.4363,-3.4401,-3.4433,-3.4476,-3.4497,-3.4546,-3.4573,-3.461,-3.4622,-3.4592,-3.4705,-3.4667,-3.4715,-3.4715,-3.4739,-3.4738,-3.487,-3.4755,-3.4755,-3.4754,-3.4754,0,-3.4176,-3.4238,-3.4264,-3.4308,-3.4378,-3.4389,-3.4457,-3.4477,-3.4511,-3.4559,-3.4554,-3.4598,-3.4611,-3.4657,-3.4666,-3.4735,-3.4746,-3.4755,-3.4757,-3.4757,-3.4756,-3.4775,-3.4769,-3.4758,-3.4757,-3.4756,-3.4756,0,-3.4263,-3.4283,-3.4361,-3.4404,-3.4417,-3.4466,-3.4503,-3.4545,-3.4561,-3.4622,-3.4636,-3.4662,-3.4716,-3.4732,-3.4796,-3.4803,-3.4883,-3.4879,-3.4871,-3.4871,-3.4918,-3.4914,-3.5068,-3.5089,-3.4959,-3.4961,-3.4962,0,-3.4326,-3.4375,-3.4424,-3.4457,-3.4482,-3.4534,-3.4567,-3.4579,-3.4614,-3.4664,-3.47,-3.4754,-3.4799,-3.4886,-3.4909,-3.4959,-3.4957,-3.5007,-3.4964,-3.4962,-3.4959,-3.4956,-3.4962,-3.5015,-3.5017,-3.5018,-3.5019,0,-3.4438,-3.4446,-3.4494,-3.4547,-3.4588,-3.4629,-3.4669,-3.4696,-3.4714,-3.4753,-3.481,-3.4844,-3.4912,-3.4966,-3.5017,-3.5039,-3.5032,-3.5032,-3.5046,-3.5046,-3.504,-3.5046,-3.4894,-3.5029,-3.5028,-3.5027,-3.5026,-3.5026,-3.4515,-3.4558,-3.4601,-3.4656,-3.4688,-3.4725,-3.4768,-3.4791,-3.4839,-3.4897,-3.49,-3.4962,-3.5001,-3.5069,-3.5094,-3.5142,-3.5127,-3.5147,-3.5152,-3.5157,-3.5162,-3.5032,-3.5151,-3.5151,-3.5151,-3.515,-3.515,0,-3.4627,-3.4655,-3.4705,-3.4763,-3.4806,-3.4797,-3.4841,-3.4878,-3.4933,-3.4971,-3.5015,-3.5081,-3.5134,-3.5162,-3.5215,-3.5248,-3.5246,-3.5261,-3.5259,-3.5265,-3.5172,-3.5155,-3.5262,-3.5262,-3.5262,-3.5262,-3.5262,-3.5262,-3.4691,-3.4764,-3.4777,-3.4865,-3.4892,-3.4954,-3.498,-3.5015,-3.5046,-3.512,-3.5165,-3.5184,-3.5218,-3.5273,-3.5321,-3.5328,-3.5348,-3.5365,-3.537,-3.5283,-3.5271,-3.526,-3.5245,-3.5369,-3.5369,-3.5459,-3.546,-3.5461]}]]